Location: Sternwarte-Kraichtal
(49.1689°N, 8.6996°E)
Time: 19:17:16
(UTC+02:00)

Vanguard 2 Rocket - Pass Details

Date: 01 June 2022
Orbit: 553 x 3323 km, 32.9° (Epoch: 02 July)

Event Time Altitude Azimuth Distance (km) Brightness Sun altitude
Rises 14:37:24 0° 247° (WSW) 7,202 11.9 59.2°
Reaches altitude 10° 14:42:29 10° 242° (WSW) 6,266 11.8 58.7°
Maximum altitude 15:00:46 45° 179° (S) 3,745 11.2 56.7°
Drops below altitude 10° 15:14:43 10° 113° (ESE) 4,878 10.6 55.1°
Sets 15:18:06 0° 107° (ESE) 5,553 10.7 54.7°
